User: anonymous   Login
Location: Bou Ouachlou
(32.7770°N, 5.6009°W)
Time: 10:18:54
(UTC+00:00)
Language:

COBE Rocket - Orbit

View from above orbital plane
View from above orbital plane
View from above satellite
View from above satellite

Ground track
Ground track

The orbit data is extracted from the following two-line orbital elements,

1 20323U 89089B   21166.81216824  .00000030  00000-0  16785-4 0  9996
2 20323  97.1215 261.3993 0072122 166.8499 193.4600 14.48404763645466
Epoch (UTC): 15 June 2021 19:29:31
Eccentricity: 0.0072122
inclination: 97.1215°
perigee height: 679 km
apogee height: 782 km
right ascension of ascending node: 261.3993°
argument of perigee: 166.8499°
revolutions per day: 14.48404763
mean anomaly at epoch: 193.4600°
orbit number at epoch: 64546

The dashed part of the orbit path shows where the satellite is in the earth's shadow,  

DLR